Weather reports worldwide

Advertisment
Thorney Island, United Kingdom (3872): temperature & dewpoint: 15.11.2017 13:00:00 - 21.11.2017 13:00:00 (GMT)Thorney Island, United Kingdom (3872): wind speed & gusts: 15.11.2017 13:00:00 - 21.11.2017 13:00:00 (GMT)Thorney Island, United Kingdom (3872): wind direction: 15.11.2017 13:00:00 - 21.11.2017 13:00:00 (GMT)Thorney Island, United Kingdom (3872): reduced air pressure: 15.11.2017 13:00:00 - 21.11.2017 13:00:00 (GMT)Thorney Island, United Kingdom (3872): visibility: 15.11.2017 13:00:00 - 21.11.2017 13:00:00 (GMT)Thorney Island, United Kingdom (3872): precipitation: 15.11.2017 13:00:00 - 21.11.2017 13:00:00 (GMT)
Date & Time tt [°C] td [°C] ff [km/h] ff [kn] fx [km/h] fx [kn] dd ppp [hPa] vv [km] rr [mm]
21.11.2017 13:00:00 - - - - - - - - - 0,0
21.11.2017 12:00:00 13,0 9,6 24 13 - - WSW 1012,3 23 0,0
21.11.2017 11:00:00 13,0 10,3 22 12 - - SW 1012,8 21 0,0
21.11.2017 10:00:00 13,1 10,8 18 10 - - SW 1013,1 17 -
21.11.2017 09:00:00 12,4 10,3 15 8 - - SW 1013,2 20 0,0
21.11.2017 08:00:00 12,3 10,0 15 8 - - WSW 1013,2 20 0,0
21.11.2017 07:00:00 12,3 10,1 16 9 - - SW 1013,2 19 0,0
21.11.2017 06:00:00 11,9 10,5 15 8 - - SW 1013,3 16 0,0
21.11.2017 05:00:00 12,3 10,9 16 9 - - WSW 1013,6 16 0,0
21.11.2017 04:00:00 12,5 10,9 26 14 - - WSW 1013,7 16 0,0
21.11.2017 03:00:00 12,5 10,8 24 13 - - WSW 1014,0 17 0,0
21.11.2017 02:00:00 12,5 10,6 28 15 - - WSW 1014,2 17 0,0
21.11.2017 01:00:00 12,6 10,9 29 16 - - WSW 1014,4 18 0,0
21.11.2017 00:00:00 12,4 11,3 29 16 46 25 WSW 1014,6 7 0,0
20.11.2017 23:00:00 12,7 10,9 31 17 - - WSW 1014,7 15 0,0
20.11.2017 22:00:00 12,7 11,0 31 17 - - WSW 1014,7 13 0,0
20.11.2017 21:00:00 12,8 11,1 29 16 - - WSW 1014,8 18 0,0
20.11.2017 20:00:00 12,6 11,2 29 16 - - WSW 1014,8 16 0,2
20.11.2017 19:00:00 12,3 11,1 29 16 50 27 WSW 1015,0 3,4 0,4
20.11.2017 18:00:00 12,4 11,1 31 17 48 26 WSW 1014,6 8 0,0
20.11.2017 17:00:00 12,8 10,8 35 19 50 27 WSW 1014,4 18 0,0
20.11.2017 16:00:00 12,7 10,9 35 19 54 29 WSW 1014,6 17 0,0
20.11.2017 15:00:00 12,3 11,2 34 18 48 26 WSW 1014,8 13 0,2
20.11.2017 14:00:00 12,6 10,9 34 18 52 28 WSW 1015,2 5 0,0
20.11.2017 13:00:00 12,9 10,5 34 18 48 26 WSW 1015,7 18 0,0
20.11.2017 12:00:00 12,6 10,4 34 18 - - WSW 1016,5 22 0,0
20.11.2017 11:00:00 12,8 10,0 28 15 - - WSW 1017,3 25 0,0
20.11.2017 10:00:00 12,3 9,7 26 14 - - WSW 1017,6 23 0,0
20.11.2017 09:00:00 11,5 9,2 22 12 - - WSW 1017,9 28 0,0
20.11.2017 08:00:00 10,5 9,4 16 9 - - WSW 1018,3 25 0,4
20.11.2017 07:00:00 10,7 9,3 11 6 - - WSW 1018,3 30 0,0
20.11.2017 06:00:00 10,8 9,2 18 10 - - WSW 1018,5 35 0,0
20.11.2017 05:00:00 10,6 9,4 28 15 - - W 1019,1 40 0,0
20.11.2017 04:00:00 11,2 10,2 18 10 - - WSW 1019,2 30 0,2
20.11.2017 03:00:00 7,3 6,8 2 1 - - NW 1020,0 14 0,0
20.11.2017 02:00:00 6,2 5,5 5 3 - - ESE 1020,9 19 0,0
20.11.2017 01:00:00 5,3 4,2 5 3 - - NE 1022,0 26 0,0
20.11.2017 00:00:00 4,3 3,9 8 4 - - ENE 1022,9 24 0,0
19.11.2017 23:00:00 3,0 2,7 8 4 - - NE 1023,6 20 0,0
19.11.2017 22:00:00 2,1 1,7 4 2 - - ENE 1024,0 14 0,0
19.11.2017 21:00:00 1,5 0,9 8 4 - - NE 1024,4 15 0,0
19.11.2017 20:00:00 2,2 1,6 5 3 - - NNE 1024,5 11 0,0
19.11.2017 19:00:00 2,8 1,8 5 3 - - NE 1024,5 15 0,0
19.11.2017 18:00:00 4,2 1,9 0 0 - - N 1024,2 35 0,0
19.11.2017 17:00:00 5,6 1,9 2 1 - - NW 1024,5 50 0,0
19.11.2017 16:00:00 7,4 2,1 5 3 - - NNW 1024,6 40 0,0
19.11.2017 15:00:00 8,4 1,8 9 5 - - NNW 1024,4 45 0,0
19.11.2017 14:00:00 8,7 1,2 13 7 - - NW 1024,5 35 0,0
19.11.2017 13:00:00 8,2 3,6 11 6 - - NW 1024,7 40 0,0
19.11.2017 12:00:00 7,8 4,2 11 6 - - NW 1024,9 30 0,0
19.11.2017 11:00:00 7,1 4,9 9 5 - - WNW 1024,7 40 0,0
19.11.2017 10:00:00 6,0 4,6 8 4 - - WNW 1024,6 40 0,0
19.11.2017 09:00:00 4,3 4,1 8 4 - - WNW 1024,3 22 0,0
19.11.2017 08:00:00 2,9 2,7 8 4 - - W 1024,2 10 -
19.11.2017 07:00:00 2,9 2,7 9 5 - - WNW 1023,6 12 0,2
19.11.2017 06:00:00 3,4 3,1 9 5 - - NW 1023,1 12 0,0
19.11.2017 05:00:00 4,2 3,8 9 5 - - WNW 1022,7 14 0,0
19.11.2017 04:00:00 4,9 4,3 5 3 - - WNW 1022,5 13 0,0
19.11.2017 03:00:00 5,9 5,1 8 4 - - NW 1022,5 26 0,0
19.11.2017 02:00:00 6,4 5,1 5 3 - - NNW 1022,1 40 0,0
19.11.2017 01:00:00 7,7 6,5 8 4 - - NW 1021,8 50 0,0
19.11.2017 00:00:00 7,7 6,7 9 5 - - WNW 1021,7 45 0,0
18.11.2017 23:00:00 7,8 6,9 8 4 - - WNW 1021,6 40 0,0
18.11.2017 22:00:00 7,7 6,9 4 2 - - NW 1021,5 50 0,0
18.11.2017 21:00:00 7,6 6,8 11 6 - - N 1021,4 50 0,0
18.11.2017 20:00:00 7,9 7,2 15 8 - - NNE 1021,2 6 1,0
18.11.2017 19:00:00 11,3 9,3 24 13 - - W 1020,4 30 0,0
18.11.2017 18:00:00 11,2 9,1 26 14 - - WSW 1020,6 25 0,0
18.11.2017 17:00:00 11,1 9,1 26 14 - - W 1021,0 35 0,0
18.11.2017 16:00:00 11,0 8,9 28 15 - - W 1021,3 16 0,0
18.11.2017 15:00:00 10,9 8,6 29 16 - - W 1021,7 11 0,0
18.11.2017 14:00:00 10,7 8,7 28 15 - - WSW 1022,1 24 0,0
18.11.2017 13:00:00 10,2 8,6 28 15 - - WSW 1022,9 22 0,4
18.11.2017 12:00:00 10,0 8,4 24 13 - - WSW 1023,7 22 0,6
18.11.2017 11:00:00 9,5 8,2 15 8 - - WSW 1024,5 13 0,2
18.11.2017 10:00:00 8,2 7,8 15 8 - - W 1025,0 3,7 0,2
18.11.2017 09:00:00 5,7 3,8 2 1 - - N 1025,4 7 0,0
18.11.2017 08:00:00 4,9 3,3 4 2 - - NE 1025,4 29 0,0
18.11.2017 07:00:00 4,9 2,7 5 3 - - NW 1025,4 35 0,0
18.11.2017 06:00:00 4,2 2,3 8 4 - - NNE 1025,5 17 0,0
18.11.2017 05:00:00 5,6 3,2 9 5 - - WNW 1025,8 35 0,0
18.11.2017 04:00:00 3,5 2,7 5 3 - - W 1026,0 22 0,0
18.11.2017 03:00:00 2,1 1,3 5 3 - - NW 1026,7 20 0,0
18.11.2017 02:00:00 2,3 1,4 8 4 - - NNW 1027,0 18 0,0
18.11.2017 01:00:00 3,1 2,1 5 3 - - W 1027,4 19 0,0
18.11.2017 00:00:00 1,6 0,9 8 4 - - NNW 1028,3 13 0,0
17.11.2017 23:00:00 1,5 0,9 8 4 - - WNW 1028,2 18 0,0
17.11.2017 22:00:00 0,8 -0,5 4 2 - - NNW 1028,4 16 0,0
17.11.2017 21:00:00 3,3 1,6 8 4 - - NW 1028,4 22 0,0
17.11.2017 20:00:00 2,4 0,8 4 2 - - NNW 1028,4 19 0,0
17.11.2017 19:00:00 2,9 0,5 2 1 - - N 1028,4 21 0,0
17.11.2017 18:00:00 4,2 0,0 4 2 - - NNW 1028,7 25 0,0
17.11.2017 17:00:00 5,9 0,5 8 4 - - N 1028,9 35 0,0
17.11.2017 16:00:00 7,8 0,6 8 4 - - N 1028,5 45 0,0
17.11.2017 15:00:00 9,2 2,5 5 3 - - N 1028,6 30 0,0
17.11.2017 14:00:00 9,6 1,8 8 4 - - NNE 1029,0 45 0,0
17.11.2017 13:00:00 9,7 0,5 8 4 - - NNE 1029,7 30 0,0
17.11.2017 12:00:00 9,4 3,0 8 4 - - NE 1029,8 45 0,0
17.11.2017 11:00:00 8,1 3,5 9 5 - - N 1030,3 24 0,0
17.11.2017 10:00:00 6,0 2,8 5 3 - - N 1029,9 25 0,0
17.11.2017 09:00:00 4,2 2,4 8 4 - - N 1030,1 21 0,0
17.11.2017 08:00:00 1,8 0,3 4 2 - - NNE 1029,8 23 0,0
17.11.2017 07:00:00 3,7 1,8 11 6 - - N 1029,3 20 0,0
17.11.2017 06:00:00 3,4 1,3 11 6 - - N 1029,1 28 0,0
17.11.2017 05:00:00 4,0 1,6 9 5 - - N 1029,2 24 0,0
17.11.2017 04:00:00 4,6 2,1 11 6 - - N 1029,0 27 0,0
17.11.2017 03:00:00 5,4 2,4 11 6 - - N 1028,7 28 0,0
17.11.2017 02:00:00 5,3 2,5 9 5 - - N 1028,7 25 0,0
17.11.2017 01:00:00 6,7 3,2 13 7 - - NNE 1028,4 35 0,0
17.11.2017 00:00:00 7,9 4,7 15 8 - - N 1027,8 30 0,0
16.11.2017 23:00:00 8,7 5,6 9 5 - - N 1027,4 30 0,0
16.11.2017 22:00:00 9,0 6,1 8 4 - - NNW 1026,8 30 0,0
16.11.2017 21:00:00 9,3 6,6 11 6 - - N 1026,5 35 0,0
16.11.2017 20:00:00 9,6 6,7 15 8 - - N 1025,9 29 0,0
16.11.2017 19:00:00 10,6 6,8 15 8 - - N 1025,2 50 0,0
16.11.2017 18:00:00 10,0 7,2 5 3 - - W 1024,3 45 0,0
16.11.2017 17:00:00 10,7 6,9 5 3 - - W 1023,8 45 -
16.11.2017 16:00:00 12,3 8,8 8 4 - - WNW 1023,3 40 0,0
16.11.2017 15:00:00 13,9 9,8 15 8 - - WSW 1022,8 40 0,0
16.11.2017 14:00:00 13,9 9,9 15 8 - - WSW 1022,8 35 0,0
16.11.2017 13:00:00 13,0 10,3 9 5 - - SW 1022,8 35 0,0
16.11.2017 12:00:00 13,0 10,5 11 6 - - SW 1022,9 30 0,0
16.11.2017 11:00:00 12,5 10,5 13 7 - - WSW 1023,2 35 0,0
16.11.2017 10:00:00 12,1 10,4 15 8 - - WSW 1023,3 45 0,0
16.11.2017 09:00:00 11,1 11,0 8 4 - - WSW 1023,0 22 0,0
16.11.2017 08:00:00 10,3 10,2 5 3 - - SSW 1022,5 12 0,0
16.11.2017 07:00:00 9,3 9,2 4 2 - - W 1022,3 7 0,0
16.11.2017 06:00:00 9,0 9,0 5 3 - - SSE 1021,9 4,2 0,0
16.11.2017 05:00:00 8,4 8,2 2 1 - - NNW 1022,0 2,9 0,0
16.11.2017 04:00:00 8,1 7,9 4 2 - - WSW 1021,9 1,4 0,0
16.11.2017 03:00:00 8,7 8,5 5 3 - - E 1022,2 0,7 0,0
16.11.2017 02:00:00 9,5 9,3 5 3 - - NNE 1023,1 3,6 0,0
16.11.2017 01:00:00 9,9 9,7 4 2 - - SSW 1023,2 4,5 0,0
16.11.2017 00:00:00 9,2 8,9 4 2 - - NNE 1023,2 2,3 0,0
15.11.2017 23:00:00 9,6 9,3 4 2 - - NE 1023,2 3,6 0,0
15.11.2017 22:00:00 9,8 9,5 4 2 - - NNE 1023,6 4,0 0,0
15.11.2017 21:00:00 9,9 9,5 4 2 - - E 1023,5 4,4 0,0
15.11.2017 20:00:00 10,1 9,7 4 2 - - NE 1023,9 5 0,0
15.11.2017 19:00:00 10,1 9,5 2 1 - - SW 1024,0 5 -
15.11.2017 18:00:00 10,7 9,8 4 2 - - NNE 1024,1 8 0,0
15.11.2017 17:00:00 11,0 10,0 5 3 - - N 1024,0 11 0,0
15.11.2017 16:00:00 11,9 10,4 2 1 - - NNE 1024,2 13 0,0
15.11.2017 15:00:00 12,5 11,1 5 3 - - W 1024,3 12 0,0
15.11.2017 14:00:00 12,7 11,2 5 3 - - NW 1024,1 12 0,0
15.11.2017 13:00:00 12,2 10,9 8 4 - - NNW 1024,4 18 0,0

tt = temperature
td = dewpoint
ff = wind speed
fx = gusts
dd = wind direction
ppp = reduced air pressure
vv = visibility
rr = precipitation

Next stations